When you browse on this site, cookies collect data to enhance your experience and personalize the content and advertising you see.
Visit our Privacy Policy to learn more. By continuing to use the site, you agree to this use of cookies and data.
  • în România
  • Lista ţărilor
  • Pe 7 zile
  • Temperatura apei
  • Meteo pe hartă
  • Widget-uri
  • user-avatar
    Intrare

    Meteo pe oră la Cachungo

    Astăzi, 21 August, Miercuri

    Timp Temperatura Precipitaţii Vânt Presiune Umiditate
    00:00 +27°C° 0 mm 3 m/s 757 mmHg 94%
    01:00 +27°C° 0 mm 2 m/s 756 mmHg 94%
    02:00 +26°C° 0 mm 2 m/s 756 mmHg 94%
    03:00 +26°C° 0 mm 2 m/s 756 mmHg 94%
    04:00 +26°C° 0 mm 2 m/s 756 mmHg 94%
    05:00 +26°C° 0 mm 2 m/s 756 mmHg 95%
    06:00 +27°C° 0 mm 2 m/s 756 mmHg 91%
    07:00 +28°C° 0 mm 2 m/s 756 mmHg 88%
    08:00 +29°C° 0 mm 2 m/s 756 mmHg 85%
    09:00 +29°C° 0.3 mm 2 m/s 756 mmHg 82%
    10:00 +30°C° 0.3 mm 2 m/s 756 mmHg 79%
    11:00 +31°C° 0.3 mm 2 m/s 756 mmHg 76%
    12:00 +31°C° 1.6 mm 3 m/s 756 mmHg 77%
    13:00 +31°C° 1.6 mm 3 m/s 755 mmHg 77%
    14:00 +32°C° 1.6 mm 4 m/s 754 mmHg 77%
    15:00 +30°C° 2.8 mm 4 m/s 754 mmHg 80%
    16:00 +30°C° 2.8 mm 4 m/s 754 mmHg 82%
    17:00 +29°C° 2.8 mm 4 m/s 754 mmHg 85%
    18:00 +28°C° 2.4 mm 3 m/s 755 mmHg 88%
    19:00 +27°C° 2.4 mm 3 m/s 755 mmHg 91%
    20:00 +27°C° 2.4 mm 2 m/s 756 mmHg 94%
    21:00 +27°C° 1.5 mm 2 m/s 756 mmHg 93%
    22:00 +27°C° 1.5 mm 2 m/s 756 mmHg 93%
    23:00 +27°C° 1.5 mm 1 m/s 756 mmHg 92%

    Mâine, 22 August, Joi

    Timp Temperatura Precipitaţii Vânt Presiune Umiditate
    00:00 +26°C° 3.8 mm 2 m/s 755 mmHg 93%
    01:00 +26°C° 3.8 mm 2 m/s 755 mmHg 95%
    02:00 +26°C° 3.8 mm 2 m/s 755 mmHg 96%
    03:00 +26°C° 2.5 mm 3 m/s 755 mmHg 95%
    04:00 +26°C° 2.5 mm 3 m/s 755 mmHg 95%
    05:00 +26°C° 2.5 mm 3 m/s 755 mmHg 95%
    06:00 +26°C° 1.2 mm 3 m/s 755 mmHg 93%
    07:00 +26°C° 1.2 mm 3 m/s 755 mmHg 92%
    08:00 +27°C° 1.2 mm 3 m/s 756 mmHg 90%
    09:00 +26°C° 1.9 mm 3 m/s 756 mmHg 92%
    10:00 +26°C° 1.9 mm 3 m/s 756 mmHg 93%
    11:00 +26°C° 1.9 mm 2 m/s 756 mmHg 95%
    12:00 +26°C° 1.1 mm 3 m/s 756 mmHg 94%
    13:00 +26°C° 1.1 mm 3 m/s 756 mmHg 94%
    14:00 +26°C° 1.1 mm 3 m/s 756 mmHg 93%
    15:00 +26°C° 1 mm 3 m/s 755 mmHg 93%
    16:00 +26°C° 1 mm 4 m/s 755 mmHg 93%
    17:00 +26°C° 1 mm 5 m/s 755 mmHg 92%
    18:00 +26°C° 0.9 mm 5 m/s 756 mmHg 92%
    19:00 +26°C° 0.9 mm 5 m/s 757 mmHg 92%
    20:00 +26°C° 0.9 mm 5 m/s 757 mmHg 92%
    21:00 +26°C° 1 mm 5 m/s 757 mmHg 92%
    22:00 +26°C° 1 mm 5 m/s 758 mmHg 92%
    23:00 +26°C° 1 mm 5 m/s 758 mmHg 91%

    Poimâine, 23 August, Vineri

    Timp Temperatura Precipitaţii Vânt Presiune Umiditate
    00:00 +26°C° 0.8 mm 5 m/s 758 mmHg 91%
    01:00 +26°C° 0.8 mm 5 m/s 757 mmHg 92%
    02:00 +26°C° 0.8 mm 4 m/s 757 mmHg 92%
    03:00 +26°C° 0.6 mm 4 m/s 757 mmHg 92%
    04:00 +26°C° 0.6 mm 4 m/s 757 mmHg 92%
    05:00 +26°C° 0.6 mm 4 m/s 757 mmHg 92%
    06:00 +26°C° 0.2 mm 5 m/s 757 mmHg 89%
    07:00 +27°C° 0.2 mm 5 m/s 758 mmHg 86%
    08:00 +28°C° 0.2 mm 6 m/s 758 mmHg 84%
    09:00 +29°C° 0.3 mm 6 m/s 758 mmHg 81%
    10:00 +29°C° 0.3 mm 6 m/s 758 mmHg 78%
    11:00 +30°C° 0.3 mm 7 m/s 758 mmHg 76%
    12:00 +30°C° 0.3 mm 7 m/s 758 mmHg 74%
    13:00 +30°C° 0.3 mm 7 m/s 757 mmHg 72%
    14:00 +32°C° 0.3 mm 7 m/s 757 mmHg 71%
    15:00 +30°C° 0.1 mm 6 m/s 757 mmHg 73%
    16:00 +29°C° 0.1 mm 6 m/s 757 mmHg 76%
    17:00 +29°C° 0.1 mm 6 m/s 757 mmHg 78%
    18:00 +28°C° 0 mm 5 m/s 757 mmHg 81%
    19:00 +27°C° 0 mm 4 m/s 758 mmHg 84%
    20:00 +27°C° 0 mm 4 m/s 759 mmHg 86%
    21:00 +27°C° 0 mm 4 m/s 759 mmHg 87%
    22:00 +27°C° 0 mm 4 m/s 759 mmHg 88%
    23:00 +26°C° 0 mm 4 m/s 759 mmHg 89%

    24 August, Sâmbătă

    Timp Temperatura Precipitaţii Vânt Presiune Umiditate
    00:00 +26°C° 0.1 mm 4 m/s 758 mmHg 89%
    01:00 +26°C° 0.1 mm 4 m/s 758 mmHg 89%
    02:00 +26°C° 0.1 mm 4 m/s 758 mmHg 89%
    03:00 +26°C° 0.2 mm 4 m/s 758 mmHg 90%
    04:00 +26°C° 0.2 mm 3 m/s 758 mmHg 91%
    05:00 +26°C° 0.2 mm 3 m/s 758 mmHg 91%
    06:00 +27°C° 0.5 mm 3 m/s 758 mmHg 89%
    07:00 +27°C° 0.5 mm 4 m/s 758 mmHg 86%
    08:00 +28°C° 0.5 mm 4 m/s 759 mmHg 83%
    09:00 +29°C° 1.9 mm 4 m/s 758 mmHg 82%
    10:00 +29°C° 1.9 mm 5 m/s 758 mmHg 81%
    11:00 +30°C° 1.9 mm 5 m/s 758 mmHg 80%
    12:00 +30°C° 1.4 mm 6 m/s 758 mmHg 80%
    13:00 +30°C° 1.4 mm 6 m/s 757 mmHg 79%
    14:00 +30°C° 1.4 mm 6 m/s 757 mmHg 79%
    15:00 +29°C° 0.4 mm 6 m/s 757 mmHg 81%
    16:00 +29°C° 0.4 mm 6 m/s 757 mmHg 82%
    17:00 +28°C° 0.4 mm 6 m/s 756 mmHg 84%
    18:00 +28°C° 0.1 mm 5 m/s 757 mmHg 85%
    19:00 +27°C° 0.1 mm 4 m/s 757 mmHg 87%
    20:00 +27°C° 0.1 mm 4 m/s 758 mmHg 89%
    21:00 +27°C° 0 mm 4 m/s 758 mmHg 89%
    22:00 +27°C° 0 mm 4 m/s 758 mmHg 89%
    23:00 +27°C° 0 mm 4 m/s 758 mmHg 89%

    25 August, Duminică

    Timp Temperatura Precipitaţii Vânt Presiune Umiditate
    00:00 +27°C° 0.3 mm 4 m/s 758 mmHg 90%
    01:00 +26°C° 0.3 mm 4 m/s 757 mmHg 91%
    02:00 +26°C° 0.3 mm 3 m/s 757 mmHg 91%
    03:00 +26°C° 0.3 mm 3 m/s 757 mmHg 92%
    04:00 +26°C° 0.3 mm 3 m/s 757 mmHg 92%
    05:00 +26°C° 0.3 mm 3 m/s 757 mmHg 92%
    06:00 +26°C° 0.2 mm 3 m/s 757 mmHg 90%
    07:00 +27°C° 0.2 mm 3 m/s 757 mmHg 88%
    08:00 +28°C° 0.2 mm 4 m/s 757 mmHg 85%
    09:00 +28°C° 1 mm 4 m/s 757 mmHg 83%
    10:00 +29°C° 1 mm 4 m/s 757 mmHg 81%
    11:00 +30°C° 1 mm 5 m/s 757 mmHg 79%
    12:00 +29°C° 2.1 mm 5 m/s 757 mmHg 82%
    13:00 +28°C° 2.1 mm 4 m/s 756 mmHg 86%
    14:00 +27°C° 2.1 mm 4 m/s 756 mmHg 89%
    15:00 +27°C° 5 mm 4 m/s 756 mmHg 91%
    16:00 +26°C° 5 mm 3 m/s 756 mmHg 94%
    17:00 +25°C° 5 mm 2 m/s 756 mmHg 97%
    18:00 +25°C° 9.3 mm 2 m/s 757 mmHg 97%
    19:00 +25°C° 9.3 mm 2 m/s 757 mmHg 97%
    20:00 +25°C° 9.3 mm 2 m/s 758 mmHg 97%
    21:00 +25°C° 1.4 mm 1 m/s 758 mmHg 97%
    22:00 +25°C° 1.4 mm 1 m/s 758 mmHg 97%
    23:00 +25°C° 1.4 mm 1 m/s 758 mmHg 96%

    26 August, Luni

    Timp Temperatura Precipitaţii Vânt Presiune Umiditate
    00:00 +25°C° 0.1 mm 2 m/s 757 mmHg 96%
    01:00 +25°C° 0.1 mm 2 m/s 757 mmHg 96%
    02:00 +25°C° 0.1 mm 2 m/s 756 mmHg 97%
    03:00 +25°C° 0.8 mm 2 m/s 756 mmHg 96%
    04:00 +25°C° 0.8 mm 2 m/s 756 mmHg 96%
    05:00 +25°C° 0.8 mm 1 m/s 756 mmHg 96%
    06:00 +26°C° 1.8 mm 2 m/s 757 mmHg 94%
    07:00 +26°C° 1.8 mm 3 m/s 757 mmHg 93%
    08:00 +26°C° 1.8 mm 3 m/s 757 mmHg 91%
    09:00 +27°C° 0.2 mm 3 m/s 757 mmHg 89%
    10:00 +27°C° 0.2 mm 3 m/s 757 mmHg 86%
    11:00 +28°C° 0.2 mm 3 m/s 758 mmHg 84%
    12:00 +29°C° 0.1 mm 3 m/s 757 mmHg 80%
    13:00 +29°C° 0.1 mm 4 m/s 756 mmHg 75%
    14:00 +30°C° 0.1 mm 4 m/s 756 mmHg 70%
    15:00 +29°C° 0.3 mm 4 m/s 756 mmHg 74%
    16:00 +29°C° 0.3 mm 4 m/s 756 mmHg 77%
    17:00 +28°C° 0.3 mm 4 m/s 756 mmHg 80%
    18:00 +27°C° 0.1 mm 3 m/s 757 mmHg 83%
    19:00 +27°C° 0.1 mm 3 m/s 757 mmHg 85%
    20:00 +26°C° 0.1 mm 3 m/s 758 mmHg 88%
    21:00 +26°C° 0 mm 3 m/s 758 mmHg 89%
    22:00 +26°C° 0 mm 3 m/s 758 mmHg 90%
    23:00 +26°C° 0 mm 3 m/s 758 mmHg 92%
    Arată mai mult